(15) Eunomia
ephemeris date magn radius delta ra dec elong phase
Today19 Apr 202510.72.510 AU2.741 AU06h21m+22°38'66.2°21.5°
Opposition24 Mar 20269.93.062 AU2.093 AU11h49m-16°50'163.5°5.3°
(15) Eunomia - 2025-04-19
astro.vanbuitenen.nl


 
-1 year
-1 month
-1 day
Now
+1 day
+1 month
+1 year

The interactive orbit chart above shows the body's path through the solar system and its position at the given date. Green and blue lines are shown perpendicular to the ecliptic plane: Green if the path is above the ecliptic plane, blue if it is below. (Left-click and drag to rotate the view; Right-click and drag to move the view; Use scroll wheel to zoom in our out.)

The orbital elements of Eunomia are:

            e (Eccentricity)                : 0.1877168
            a (Semimajor axis)              : 2.6432479
            i (Inclination)                 : 11.76051
            Ω (Longitude of ascending node) : 292.87955
            ω (Argument of perihelion)      : 98.63439
            M (Mean anomaly)                : 67.71314
            Epoch                           : 2025 May 05

            L (Longitude of perihelion)     : 211.69620
            B (Latitude of perihelion)      : 11.62535
            P (Orbital period in years)     : 4.30            
        

The light curve chart below shows the estimated development of the minor planet's magnitude.


The all-sky chart below shows the path of the minor planet over the same period as the light curve. The current position is marked yellow.





The following chart shows the path of the minor planet in the next few days. The field of view is optimized for (~10x50) binoculars and finderscopes. A more printer-friendly version of the same chart can be found below.




Ephemerides:
Date       Time       RA (2000)    DEC (2000)    delta   radius  elong  phase   PA    magn
2025-04-19 00:00 UT   06 21 53.2   +22 38 51     2.741    2.510   66.2   21.5    92   10.7 
2025-04-19 20:12 UT   06 23 12.3   +22 35 56     2.752    2.512   65.7   21.4    93   10.7 
2025-04-20 00:00 UT   06 23 27.2   +22 35 23     2.754    2.512   65.6   21.4    93   10.7 
2025-04-21 00:00 UT   06 25 01.6   +22 31 53     2.768    2.514   65.0   21.2    93   10.7 
2025-04-22 00:00 UT   06 26 36.2   +22 28 21     2.782    2.516   64.4   21.1    93   10.7 
2025-04-23 00:00 UT   06 28 11.2   +22 24 47     2.795    2.518   63.8   21.0    93   10.7 
2025-04-24 00:00 UT   06 29 46.5   +22 21 10     2.809    2.520   63.2   20.9    93   10.7 
2025-04-25 00:00 UT   06 31 22.1   +22 17 31     2.822    2.522   62.6   20.7    94   10.7 
2025-04-26 00:00 UT   06 32 57.9   +22 13 49     2.835    2.524   62.0   20.6    94   10.7 
2025-04-27 00:00 UT   06 34 34.1   +22 10 05     2.849    2.526   61.4   20.5    94   10.7 
2025-04-28 00:00 UT   06 36 10.5   +22 06 17     2.862    2.528   60.8   20.3    94   10.7 
2025-04-29 00:00 UT   06 37 47.2   +22 02 28     2.875    2.530   60.2   20.2    94   10.7 
2025-04-30 00:00 UT   06 39 24.2   +21 58 35     2.888    2.532   59.6   20.1    95   10.7 
2025-05-01 00:00 UT   06 41 01.4   +21 54 40     2.901    2.534   59.0   19.9    95   10.7 
2025-05-02 00:00 UT   06 42 38.8   +21 50 42     2.914    2.536   58.4   19.8    95   10.8 
2025-05-03 00:00 UT   06 44 16.5   +21 46 41     2.927    2.538   57.8   19.6    95   10.8 
2025-05-04 00:00 UT   06 45 54.3   +21 42 37     2.940    2.540   57.2   19.5    95   10.8 
2025-05-05 00:00 UT   06 47 32.4   +21 38 30     2.953    2.542   56.6   19.4    96   10.8 
2025-05-06 00:00 UT   06 49 10.6   +21 34 20     2.966    2.544   56.1   19.2    96   10.8 
2025-05-07 00:00 UT   06 50 49.0   +21 30 07     2.978    2.546   55.5   19.1    96   10.8 
2025-05-08 00:00 UT   06 52 27.6   +21 25 51     2.991    2.548   54.9   18.9    96   10.8 
2025-05-09 00:00 UT   06 54 06.4   +21 21 31     3.004    2.550   54.3   18.8    96   10.8 
2025-05-10 00:00 UT   06 55 45.3   +21 17 09     3.016    2.552   53.7   18.6    97   10.8 
2025-05-11 00:00 UT   06 57 24.3   +21 12 44     3.028    2.554   53.2   18.4    97   10.8 


    Terminology:
            
    delta:  distance between minor planet and earth in AU
    radius: distance between minor planet and sun in AU
    magn:   magnitude (brightness) estimate    
    ra:     right ascension in hours (24h = 360deg)
    dec:    declination in degrees
    elong:  elongation in degrees (angle sun-earth-minor planet)    
    phase:  phase angle in degrees (angle sun-minor planet-earth)        
    AU:     Astronomical Unit (mean distance between earth and sun: 149597870.7 km
    

Orbital elements provided by the MPC (Minor Planet Center).
Calculations by a modified version of AAPlus, a C# implementation of the AA+ project by PJ Naughter from the algorithms presented in the book "Astronomical Algorithms" by Jean Meeus.
NGC2000 dso catalog and star labels from VizieR as provided by the Strasbourg astronomical Data Center.
Tycho2 catalog from the ESO archive.